Location: Canly
(49.3861°N, 2.7082°E)
Time: 17:48:41
(UTC+00:00)

Daily predictions for brighter satellites

Satellite Brightness Start Highest point End
(mag) Time Altitude Azimuth Time Altitude Azimuth Time Altitude Azimuth
ADEOS 3.6 17:13:18 10° SSE 17:18:30 79° ENE 17:23:44 10° NNW
Cosmos 1340 Rocket 3.2 17:15:32 10° SSE 17:19:12 41° E 17:22:54 10° NNE
Cosmos 2266 Rocket 4.0 17:14:04 10° N 17:20:24 72° E 17:26:33 10° SSE
Cosmos 1980 Rocket 2.4 17:15:48 10° SSW 17:21:27 82° WNW 17:27:12 10° NNE
Cosmos 2369 3.9 17:16:35 10° SSW 17:22:15 81° WNW 17:27:59 10° NNE
Cosmos 1763 Rocket 4.0 17:17:34 10° N 17:22:25 37° ENE 17:27:10 10° SE
USA 215 3.7 17:17:05 10° SE 17:23:37 71° SW 17:30:12 10° WNW
Okean O Rocket 3.3 17:22:17 10° E 17:24:37 14° ENE 17:26:59 10° NNE
ATLAS CENTAUR R/B 1.7 17:20:20 10° SW 17:25:04 87° SE 17:29:38 10° NE
ATLAS 2AS CENTAUR R/B 2.8 17:18:31 10° NW 17:25:36 62° NE 17:32:14 10° ESE
Cosmos 2251 Rocket 3.6 17:21:23 10° SSW 17:26:43 77° ESE 17:32:07 10° NNE
Cosmos 1697 Rocket 3.8 17:22:01 10° SW 17:27:24 43° NW 17:32:49 10° NNE
Radarsat Rocket 4.1 17:21:49 10° SSE 17:27:51 75° ENE 17:34:37 10° NNW
CZ-2C R/B 4.0 17:23:30 10° N 17:28:40 41° WNW 17:33:52 10° SW
SMAP 3.8 17:25:52 10° S 17:30:27 58° W 17:35:04 10° NNW
COBE Rocket 4.2 17:26:06 10° S 17:30:49 70° WSW 17:35:29 10° NNW
DELTA 2 DEB (DPAF) 4.1 17:29:03 10° NNE 17:33:26 67° ESE 17:37:48 10° S
Cosmos 2263 Rocket 2.9 17:28:19 10° NW 17:33:47 58° WSW 17:39:13 10° S
SL-08 RB Rocket 4.4 17:30:48 10° S 17:35:23 63° W 17:40:02 10° NNW
Cosmos 540 Rocket 4.1 17:34:52 10° N 17:39:35 34° NE 17:44:15 10° ESE
Cosmos 1461 4.5 17:39:04 10° SSE 17:42:05 19° ESE 17:44:27 13° ENE
Lacrosse 5 2.8 17:39:16 10° S 17:43:44 31° SE 17:47:30 13° ENE
SKYMED 2 3.8 17:39:34 10° NNE 17:43:48 48° E 17:48:00 10° S
SL-08 R/B 3.5 17:42:14 10° NNE 17:47:13 84° WNW 17:52:10 10° SSW
Cosmos 2058 Rocket 4.2 17:43:56 10° NNE 17:47:21 22° ENE 17:50:47 10° ESE
PSLV R/B 4.2 17:50:58 10° SE 17:54:20 36° ENE 17:57:47 10° N
Cosmos 1607 4.1 17:48:47 10° SW 17:54:54 73° NW 18:01:08 10° NE
YAOGAN 1 3.0 17:52:12 10° SE 17:56:12 39° ENE 18:00:14 10° N
Cosmos 676 Rocket 4.4 17:52:28 10° S 17:57:23 41° ESE 18:02:18 10° NE
Cosmos 1328 3.7 17:54:44 10° S 17:58:43 88° E 18:02:42 10° N
Cosmos 407 Rocket 3.5 17:53:46 10° SSW 17:58:55 82° WNW 18:04:05 10° NNE
DMSP B5D2-2 4.2 17:56:31 10° NNE 18:01:50 83° WNW 18:07:06 10° SSW
BREEZE M DEB (TANK) 4.3 17:56:32 10° WNW 18:02:02 38° SW 18:04:38 10° SE
Meteor 1-11 4.4 17:56:50 10° S 18:02:28 53° E 18:08:06 10° NNE
Lacrosse 5 rocket 1.5 17:59:06 10° NW 18:02:32 41° NNE 18:04:27 22° E
USA 281 4.4 17:58:01 10° NNE 18:03:59 39° NW 18:09:58 10° WSW
Cosmos 1844 Rocket 2.7 17:59:15 10° NNW 18:04:47 61° ENE 18:10:18 10° SE
APEX 4.2 18:00:27 10° SSW 18:06:31 78° ESE 18:12:07 10° NNE
CZ-4B DEB 4.1 18:01:09 10° SSE 18:06:36 84° ENE 18:12:06 10° NNW
Cosmos 1536 Rocket 3.9 18:02:38 10° SSW 18:06:56 68° WNW 18:11:16 10° N
CZ-4 R/B 2.1 18:03:59 10° SE 18:07:38 31° ENE 18:11:15 10° N
Meteor 2-12 Rocket 4.5 18:02:29 10° N 18:08:30 57° ENE 18:14:26 10° SSE
Nadezhda 2 Rocket 4.4 18:03:21 10° N 18:09:31 61° ENE 18:15:34 10° SSE
CZ-4B R/B 3.3 18:05:13 10° SE 18:10:22 51° ENE 18:15:39 10° N
Cosmos 1140 Rocket 4.1 18:05:20 10° SW 18:10:26 58° WNW 18:15:33 10° NNE
IGS 5A 4.4 18:15:33 25° E 18:16:08 26° ENE 18:19:35 10° N
Cosmos 1844 3.7 18:11:46 10° NNW 18:17:35 66° ENE 18:23:19 10° SE
CZ-4C R/B 3.1 18:13:41 10° NNE 18:17:36 88° E 18:21:17 10° SSW
MOS 1-B 4.3 18:11:54 10° SSE 18:17:37 64° ENE 18:23:23 10° N
Cosmos 1190 Rocket 4.0 18:12:30 10° SSW 18:17:49 88° WNW 18:23:09 10° NNE
Cosmos 1606 Rocket 3.4 18:13:49 10° N 18:18:10 87° E 18:22:29 10° S
Cosmos 1408 3.2 18:15:43 10° SSW 18:19:03 51° WNW 18:22:26 10° N
RESURS DK-1 2.5 18:15:13 10° NNW 18:19:16 52° NE 18:21:55 20° SE
ISS -1.7 18:18:09 10° W 18:21:00 26° SW 18:23:51 10° SSE
Cosmos 2228 4.0 18:17:51 10° NNW 18:21:56 48° W 18:26:00 10° SSW
Cosmos 1633 2.6 18:19:01 10° SSE 18:22:13 43° E 18:23:16 32° NE
Cosmos 2278 4.3 18:17:07 10° SW 18:22:43 59° WNW 18:28:23 10° NNE
Cosmos 1892 2.8 18:23:01 10° SSW 18:26:43 72° W 18:30:30 10° N
Cosmos 2360 Rocket 2.5 18:21:28 10° S 18:26:48 46° ESE 18:30:24 20° NE
Cosmos 2219 Rocket 3.3 18:23:35 10° SSE 18:27:04 22° ESE 18:27:04 22° ESE
Cosmos 1892 Rocket 3.5 18:26:36 10° S 18:30:56 57° E 18:35:15 10° NNE
Cosmos 2333 Rocket 2.8 18:26:38 10° S 18:31:39 34° ESE 18:33:11 29° ENE
COSMO-SKYMED 1 3.2 18:27:33 10° N 18:31:51 58° WNW 18:36:06 10° SSW
Cosmos 2278 Rocket 3.5 18:28:55 10° N 18:33:07 21° NE 18:33:32 20° NE
Cosmos 2322 Rocket 2.1 18:32:38 10° SSW 18:38:14 78° ESE 18:42:51 16° NNE
Cosmos 1825 2.1 18:36:29 10° SSW 18:40:10 82° W 18:43:54 10° N
Feng Yun 1-1 Rocket 4.2 18:34:57 10° SSE 18:40:24 60° ENE 18:45:46 10° N
DMSP B5D1-3 4.5 18:37:36 10° NNE 18:42:41 61° ESE 18:47:44 10° S
SL-4 R/B 1.8 18:39:15 10° WNW 18:42:45 59° N 18:43:14 53° NE
COSMOS 2455 4.3 18:38:07 10° W 18:43:28 32° NW 18:48:50 10° NNE
Cosmos 468 Rocket 4.4 18:40:18 10° NNW 18:45:26 63° WSW 18:50:29 10° S
Cosmos 1726 Rocket 4.1 18:46:26 10° NNW 18:50:41 57° W 18:54:54 10° S
BlueWalker 3 2.4 18:47:02 10° WNW 18:50:48 46° N 18:51:11 44° NNE
SL-16 R/B 2.6 18:46:34 10° SW 18:52:12 64° WNW 18:57:26 12° NNE
Cosmos 2333 4.4 18:48:23 10° S 18:53:42 47° ESE 18:54:40 42° E
In-Cosmos 22 Rocket 4.4 18:48:00 10° SSW 18:53:49 78° WNW 18:59:41 10° N
Cosmos 1954 Rocket 4.4 18:50:43 10° SW 18:55:56 64° WNW 19:00:56 11° NNE
Cosmos 1745 Rocket 3.9 18:50:14 10° N 18:56:30 69° ENE 19:02:40 10° SSE
ATLAS 5 CENTAUR R/B 3.8 18:55:21 10° NNW 18:57:48 14° N 18:58:45 14° NNE
CSL-04 Debris 4.2 18:56:13 38° ESE 18:58:02 55° ENE 19:03:18 10° N
Okean O Rocket 1.6 18:55:56 10° SSE 19:00:19 85° WSW 19:04:47 10° NNW
Okean-O 4.2 19:03:02 22° NNE 19:03:02 22° NNE 19:04:50 10° N
Cosmos 1386 Rocket 4.3 18:55:58 10° N 19:02:01 80° E 19:08:04 10° SSE
Cosmos 1814 Rocket 4.2 18:57:15 10° NNW 19:02:27 48° ENE 19:02:29 48° ENE
Cosmos 1340 2.6 18:58:49 10° NNW 19:02:30 76° W 19:02:56 65° SSW
ATLAS CENTAUR R/B 3.6 19:00:25 10° W 19:04:09 23° NNW 19:06:27 16° N
CSL-04 Rocket 3.6 19:04:35 52° E 19:05:15 56° ENE 19:10:32 10° N
Cosmos 1980 Rocket 4.4 19:02:10 10° W 19:06:22 21° NW 19:10:37 10° N
Cosmos 1850 Rocket 3.9 19:01:37 10° S 19:06:43 61° ESE 19:07:01 60° E
Cosmos 1741 Rocket 3.9 19:08:41 10° S 19:13:57 67° ESE 19:14:11 66° E
Cosmos 1869 4.3 19:10:39 10° NNW 19:14:22 46° W 19:18:08 10° SSW
Cosmos 1709 Rocket 3.9 19:09:01 10° N 19:15:09 62° ENE 19:16:27 50° SE
Cosmos 841 Rocket 3.7 19:10:51 10° NNW 19:16:07 72° WSW 19:19:10 25° S
ATLAS 2AS CENTAUR R/B 4.0 19:09:55 10° NW 19:16:14 38° WSW 19:22:13 10° S
Cosmos 1943 Rocket 4.0 19:13:59 10° N 19:16:34 17° NNE 19:16:34 17° NNE
Cosmos 1461 3.2 19:16:10 10° SW 19:20:27 66° NW 19:20:38 65° NNW
Cosmos 1553 Rocket 4.3 19:16:10 10° SSW 19:22:12 65° WNW 19:28:21 10° N
Genesis I 4.4 19:18:15 10° SW 19:20:43 37° SSW 19:20:43 37° SSW
Cosmos 1417 Rocket 4.5 19:19:00 10° S 19:25:17 82° W 19:31:32 10° N
Cosmos 2058 Rocket 4.1 19:21:23 10° NNW 19:25:33 45° W 19:29:45 10° SSW
Lacrosse 5 1.9 19:21:18 10° WSW 19:26:25 72° NNW 19:26:43 69° N
Landsat 7 4.4 19:29:57 48° N 19:29:57 48° N 19:33:23 10° NNW
Gblst 52 Del rocket 4.0 19:30:51 10° W 19:36:23 77° NNW 19:36:23 77° NNW
Cosmos 883 Rocket 4.4 19:32:54 10° S 19:41:13 45° NNE 19:45:29 10° NNE
Lacrosse 5 rocket 3.1 19:37:58 10° WNW 19:39:53 26° W 19:39:53 26° W
CZ-4 R/B 3.4 19:38:56 10° SSW 19:42:30 28° W 19:46:05 10° NW
BREEZE-M DEB (TANK) 4.0 19:38:46 10° W 19:42:54 55° S 19:44:07 49° SSE
S3M 4.5 19:50:37 10° SSW 19:56:55 60° WNW 20:03:15 10° N
Cosmos 2360 Rocket 3.5 20:05:43 10° WSW 20:10:56 37° NW 20:12:13 33° NNW
Cosmos 2219 Rocket 3.4 20:05:40 10° SW 20:08:53 35° SW 20:08:53 35° SW
Cosmos 2333 Rocket 3.1 20:10:18 10° SW 20:15:16 47° WNW 20:15:16 47° WNW
Cosmos 2278 Rocket 3.5 20:12:24 10° NNW 20:15:25 33° NNW 20:15:25 33° NNW
Cosmos 2322 Rocket 4.1 20:18:21 10° W 20:22:54 25° NW 20:24:43 21° NNW
